Weather History for KMLE - August, 2013

Change the Weather History Date:

Saturday, August 24, 2013

  Actual Average (KOMA) Record (KOMA)
Temperature  
Mean Temperature 83 °F 74 °F  
Max Temperature 93 °F 84 °F 105 °F (1936)
Min Temperature 74 °F 63 °F 47 °F (1934)
Degree Days  
Heating Degree Days 0 0  
Month to date heating degree days 0  
Since 1 June heating degree days 18  
Since 1 July heating degree days 1  
Cooling Degree Days 18 9  
Month to date cooling degree days 246  
Year to date cooling degree days 923  
Since 1 June cooling degree days 841  
Growing Degree Days 33 (Base 50)    
Moisture  
Dew Point 70 °F    
Average Humidity 66    
Maximum Humidity 82    
Minimum Humidity 47    
Precipitation  
Precipitation 0.00 in 0.12 in 1.13 in (2010)
Month to date precipitation 3.04  
Year to date precipitation 22.33  
Snow  
Snow 0.00 in 0.00 in - ()
Month to date snowfall 0.0  
Since 1 July snowfall 0.0  
Snow Depth -    
Sea Level Pressure  
Sea Level Pressure 30.04 in    
Wind  
Wind Speed 8 mph (SSE)    
Max Wind Speed 20 mph    
Max Gust Speed 26 mph    
Visibility 10 miles    
Events Rain , Thunderstorm    
T = Trace of Precipitation, MM = Missing Value Source: NWS Daily Summary

Daily Weather History Graph

Daily Weather History Graph

Search for Another Location

Airport or City:

Trip Planner

Search our weather history database for the weather conditions in past years. The results will help you decide how hot, cold, wet, or windy it might be!

Date:

Astronomy

Aug. 24, 2013 Rise Set
Actual Time 6:43 AM CDT 8:09 PM CDT
Civil Twilight 6:14 AM CDT 8:38 PM CDT
Nautical Twilight 5:39 AM CDT 9:12 PM CDT
Astronomical Twilight 5:02 AM CDT 9:49 PM CDT
Moon 10:01 PM CDT (8/24) 10:47 AM CDT (8/24)
Length of Visible Light 14h 23m
Length of Day
13h 26m
Waning Gibbous, 84% of the Moon is Illuminated
Aug 24
Waning Gibbous
Aug 28
Last Quarter
Sep 5
New
Sep 12
First Quarter
Sep 19
Full

Hourly Weather History & Observations

Time (CDT) Temp. Heat Index Dew Point Humidity Pressure Visibility Wind Dir Wind Speed Gust Speed Precip Events Conditions
12:15 AM 77.2 °F - 69.4 °F 77% 30.01 in 10.0 mi SE 4.6 mph - N/A   Clear
12:35 AM 77.0 °F - 69.1 °F 76% 30.01 in 10.0 mi SE 4.6 mph - N/A   Clear
12:55 AM 76.6 °F - 69.1 °F 77% 30.02 in 10.0 mi ESE 3.5 mph - N/A   Clear
1:15 AM 77.0 °F - 68.9 °F 76% 30.02 in 10.0 mi ESE 4.6 mph - N/A   Clear
1:35 AM 76.8 °F - 68.9 °F 76% 30.02 in 10.0 mi ESE 4.6 mph - N/A   Clear
1:55 AM 77.0 °F - 68.9 °F 76% 30.02 in 10.0 mi ESE 5.8 mph - N/A   Clear
2:15 AM 77.0 °F - 68.7 °F 75% 30.03 in 10.0 mi SE 5.8 mph - N/A   Clear
2:35 AM 76.6 °F - 68.5 °F 76% 30.02 in 10.0 mi SE 6.9 mph - N/A   Clear
2:55 AM 76.6 °F - 68.7 °F 76% 30.03 in 10.0 mi SE 5.8 mph - N/A   Clear
3:15 AM 76.5 °F - 68.5 °F 76% 30.03 in 10.0 mi SE 5.8 mph - N/A   Clear
3:35 AM 76.6 °F - 68.4 °F 75% 30.03 in 10.0 mi SSE 6.9 mph - N/A   Clear
3:55 AM 77.0 °F - 68.2 °F 74% 30.03 in 10.0 mi SE 8.1 mph - N/A   Scattered Clouds
4:15 AM 76.8 °F - 68.4 °F 75% 30.03 in 10.0 mi SE 8.1 mph - N/A Rain Light Rain
4:35 AM 76.5 °F - 68.2 °F 75% 30.03 in 10.0 mi SE 5.8 mph - N/A   Scattered Clouds
4:55 AM 76.3 °F - 68.2 °F 76% 30.03 in 10.0 mi SE 4.6 mph - N/A Thunderstorm Clear
5:15 AM 76.3 °F - 68.2 °F 76% 30.04 in 10.0 mi SE 5.8 mph - N/A   Clear
5:35 AM 75.7 °F - 68.2 °F 77% 30.04 in 10.0 mi SE 4.6 mph - N/A   Clear
5:55 AM 76.1 °F - 68.0 °F 76% 30.05 in 10.0 mi ESE 5.8 mph - N/A   Clear
6:15 AM 76.1 °F - 68.2 °F 76% 30.05 in 10.0 mi ESE 5.8 mph - N/A   Clear
6:35 AM 75.4 °F - 68.2 °F 78% 30.05 in 10.0 mi SE 6.9 mph - N/A   Clear
6:55 AM 75.2 °F - 68.5 °F 80% 30.05 in 10.0 mi SE 8.1 mph - N/A   Clear
7:15 AM 75.2 °F - 68.5 °F 80% 30.06 in 10.0 mi SE 6.9 mph - N/A   Clear
7:35 AM 74.8 °F - 68.5 °F 81% 30.06 in 10.0 mi SE 8.1 mph - N/A   Clear
7:55 AM 74.8 °F - 68.9 °F 82% 30.06 in 10.0 mi SE 6.9 mph - N/A   Clear
8:15 AM 75.4 °F - 69.1 °F 81% 30.07 in 10.0 mi SE 9.2 mph - N/A   Clear
8:35 AM 76.6 °F - 69.3 °F 78% 30.07 in 10.0 mi SE 8.1 mph - N/A   Clear
8:55 AM 79.2 °F - 70.0 °F 73% 30.07 in 10.0 mi SE 10.4 mph - N/A   Clear
9:15 AM 79.9 °F - 70.2 °F 72% 30.07 in 10.0 mi SSE 8.1 mph - N/A   Clear
9:35 AM 80.1 °F 83.2 °F 70.0 °F 71% 30.07 in 10.0 mi SSE 8.1 mph - N/A Thunderstorm Clear
9:55 AM 81.3 °F 85.2 °F 70.5 °F 70% 30.07 in 10.0 mi SSE 9.2 mph - N/A   Clear
10:15 AM 82.0 °F 86.1 °F 70.3 °F 68% 30.07 in 10.0 mi South 9.2 mph 16.1 mph N/A   Clear
10:35 AM 82.4 °F 86.3 °F 70.0 °F 66% 30.07 in 10.0 mi SSE 10.4 mph - N/A   Clear
10:55 AM 83.3 °F 87.6 °F 70.3 °F 65% 30.07 in 10.0 mi SSE 10.4 mph - N/A   Clear
11:15 AM 83.5 °F 87.7 °F 70.3 °F 64% 30.07 in 10.0 mi SSE 10.4 mph - N/A   Clear
11:35 AM 84.2 °F 88.7 °F 70.5 °F 63% 30.08 in 10.0 mi SSE 11.5 mph - N/A   Clear
11:55 AM 85.5 °F 90.8 °F 70.9 °F 62% 30.07 in 10.0 mi SSE 13.8 mph 20.7 mph N/A   Clear
12:15 PM 86.7 °F 92.5 °F 71.4 °F 60% 30.06 in 10.0 mi SSE 12.7 mph 18.4 mph N/A   Clear
12:35 PM 86.7 °F 92.9 °F 71.6 °F 61% 30.06 in 10.0 mi SSE 15.0 mph - N/A   Clear
12:55 PM 88.2 °F 94.1 °F 71.4 °F 57% 30.05 in 10.0 mi SSE 15.0 mph 20.7 mph N/A   Clear
1:15 PM 89.4 °F 95.8 °F 71.1 °F 55% 30.04 in 10.0 mi SSE 15.0 mph 21.9 mph N/A   Clear
1:35 PM 89.2 °F 94.9 °F 70.7 °F 54% 30.04 in 10.0 mi SSE 17.3 mph 21.9 mph N/A   Clear
1:55 PM 89.6 °F 95.7 °F 70.9 °F 54% 30.04 in 10.0 mi South 10.4 mph 20.7 mph N/A   Clear
2:15 PM 90.3 °F 96.7 °F 70.9 °F 53% 30.04 in 10.0 mi SSE 15.0 mph 23.0 mph N/A   Clear
2:35 PM 90.9 °F 97.3 °F 71.1 °F 52% 30.03 in 10.0 mi South 17.3 mph 21.9 mph N/A   Clear
2:55 PM 91.4 °F 97.8 °F 70.9 °F 51% 30.03 in 10.0 mi SSE 18.4 mph 25.3 mph N/A   Clear
3:15 PM 91.4 °F 97.8 °F 70.9 °F 51% 30.02 in 10.0 mi South 15.0 mph 19.6 mph N/A   Clear
3:35 PM 92.7 °F 99.4 °F 70.7 °F 49% 30.02 in 10.0 mi SSE 19.6 mph 25.3 mph N/A   Clear
3:55 PM 92.8 °F 98.6 °F 70.2 °F 47% 30.01 in 10.0 mi SSE 16.1 mph 26.5 mph N/A   Clear
4:15 PM 91.9 °F 97.9 °F 70.2 °F 49% 30.01 in 10.0 mi SSE 18.4 mph 24.2 mph N/A   Clear
4:35 PM 91.8 °F 98.1 °F 70.5 °F 50% 30.00 in 10.0 mi South 16.1 mph 24.2 mph N/A   Clear
4:55 PM 92.3 °F 98.6 °F 70.9 °F 49% 30.00 in 10.0 mi SSE 18.4 mph 24.2 mph N/A   Clear
5:15 PM 92.3 °F 99.7 °F 71.6 °F 51% 30.00 in 10.0 mi South 15.0 mph 24.2 mph N/A   Clear
5:35 PM 91.6 °F 97.7 °F 70.7 °F 50% 30.00 in 10.0 mi SSE 16.1 mph 25.3 mph N/A   Clear
5:55 PM 91.4 °F 97.8 °F 71.1 °F 51% 30.00 in 10.0 mi South 13.8 mph 25.3 mph N/A   Clear
6:15 PM 90.9 °F 96.7 °F 70.7 °F 51% 30.00 in 10.0 mi SSE 16.1 mph 23.0 mph N/A   Clear
6:35 PM 90.5 °F 96.5 °F 70.7 °F 52% 30.00 in 10.0 mi SSE 12.7 mph 21.9 mph N/A   Clear
6:55 PM 89.8 °F 95.6 °F 70.3 °F 53% 30.00 in 10.0 mi SSE 15.0 mph 23.0 mph N/A   Clear
7:15 PM 88.9 °F 94.7 °F 70.9 °F 55% 30.01 in 10.0 mi SSE 12.7 mph 20.7 mph N/A   Clear
7:35 PM 87.8 °F 93.4 °F 70.9 °F 57% 30.01 in 10.0 mi SSE 11.5 mph 17.3 mph N/A   Clear
7:55 PM 86.9 °F 92.1 °F 70.7 °F 58% 30.01 in 10.0 mi SSE 10.4 mph - N/A   Clear
8:15 PM 85.6 °F 90.8 °F 70.9 °F 61% 30.01 in 10.0 mi SE 8.1 mph - N/A   Clear
8:35 PM 84.2 °F 89.6 °F 71.6 °F 66% 30.02 in 10.0 mi SE 9.2 mph - N/A   Clear
8:55 PM 84.2 °F 89.0 °F 70.9 °F 64% 30.03 in 10.0 mi SSE 9.2 mph - N/A   Clear
9:15 PM 83.5 °F 88.2 °F 71.1 °F 66% 30.04 in 10.0 mi SSE 10.4 mph 16.1 mph N/A   Clear
9:35 PM 83.3 °F 88.2 °F 71.2 °F 67% 30.04 in 10.0 mi SSE 10.4 mph - N/A   Clear
9:55 PM 82.9 °F 87.7 °F 71.4 °F 68% 30.05 in 10.0 mi SSE 9.2 mph - N/A   Clear
10:15 PM 82.4 °F 87.2 °F 71.6 °F 70% 30.05 in 10.0 mi SSE 8.1 mph - N/A   Clear
10:35 PM 82.4 °F 86.7 °F 71.1 °F 68% 30.06 in 10.0 mi SSE 9.2 mph 16.1 mph N/A   Clear
10:55 PM 82.0 °F 86.3 °F 70.9 °F 69% 30.06 in 10.0 mi SSE 8.1 mph - N/A   Clear
11:15 PM 81.5 °F 85.5 °F 70.9 °F 70% 30.06 in 10.0 mi SSE 10.4 mph - N/A   Clear
11:35 PM 81.0 °F 84.7 °F 70.9 °F 71% 30.07 in 10.0 mi SSE 10.4 mph - N/A   Clear
11:55 PM 80.8 °F 84.4 °F 70.7 °F 71% 30.07 in 10.0 mi SSE 10.4 mph - N/A   Clear